Weather History for KJMS - October, 2011

Change the Weather History Date:

Wednesday, October 19, 2011

  Actual Average Record
Temperature  
Mean Temperature 33 °F 43 °F  
Max Temperature 44 °F 54 °F 87 °F (2003)
Min Temperature 22 °F 32 °F 3 °F (1917)
Degree Days  
Heating Degree Days 32 22  
Month to date heating degree days 218 345  
Since 1 July heating degree days 445 663  
Cooling Degree Days 0 0  
Month to date cooling degree days 17 0  
Year to date cooling degree days 497 445  
Moisture  
Dew Point 25 °F    
Average Humidity 75    
Maximum Humidity 96    
Minimum Humidity 53    
Precipitation  
Precipitation 0.00 in 0.05 in 0.35 in (1983)
Month to date precipitation 0.97 1.05  
Year to date precipitation 21.28 17.24  
Sea Level Pressure  
Sea Level Pressure 30.25 in    
Wind  
Wind Speed 4 mph (North)    
Max Wind Speed 12 mph    
Max Gust Speed 15 mph    
Visibility 10 miles    
Events      
T = Trace of Precipitation, MM = Missing Value Source: NWS Daily Summary

Daily Weather History Graph

Daily Weather History Graph

Search for Another Location

Airport or City:

Trip Planner

Search our weather history database for the weather conditions in past years. The results will help you decide how hot, cold, wet, or windy it might be!

Date:

Astronomy

Oct. 19, 2011 Rise Set
Actual Time 7:57 AM CDT 6:40 PM CDT
Civil Twilight 7:27 AM CDT 7:11 PM CDT
Nautical Twilight 6:51 AM CDT 7:46 PM CDT
Astronomical Twilight 6:16 AM CDT 8:21 PM CDT
Moon No Moon Rise 2:40 PM CDT (10/19)
Length of Visible Light 11h 44m
Length of Day
10h 42m
Waning Gibbous, 54% of the Moon is Illuminated
Oct 19
Waning Gibbous
Oct 19
Last Quarter
Oct 26
New
Nov 2
First Quarter
Nov 10
Full

Hourly Weather History & Observations

Time (CDT) Temp. Windchill Dew Point Humidity Pressure Visibility Wind Dir Wind Speed Gust Speed Precip Events Conditions
12:56 AM 26.6 °F 20.0 °F 21.2 °F 80% 30.21 in 10.0 mi North 5.8 mph - N/A   Clear
1:56 AM 26.6 °F 19.1 °F 19.4 °F 74% 30.21 in 10.0 mi NW 6.9 mph - N/A   Clear
2:56 AM 23.0 °F 15.8 °F 19.0 °F 85% 30.27 in 10.0 mi NNW 5.8 mph - N/A   Clear
3:56 AM 24.1 °F 16.0 °F 21.0 °F 88% 30.26 in 10.0 mi NNW 6.9 mph - N/A   Clear
4:56 AM 24.1 °F 16.0 °F 21.0 °F 88% 30.27 in 10.0 mi NW 6.9 mph - N/A   Clear
5:56 AM 23.0 °F 17.0 °F 19.9 °F 88% 30.28 in 10.0 mi North 4.6 mph - N/A   Clear
6:56 AM 23.0 °F 13.9 °F 19.9 °F 88% 30.30 in 10.0 mi NNW 8.1 mph - N/A   Clear
7:56 AM 23.0 °F - 21.0 °F 92% 30.30 in 10.0 mi Calm Calm - N/A   Clear
9:56 AM 32.0 °F 24.8 °F 28.0 °F 85% 30.32 in 10.0 mi NNW 8.1 mph - N/A   Clear
10:56 AM 36.0 °F 29.6 °F 28.9 °F 76% 30.31 in 10.0 mi North 8.1 mph - N/A   Clear
11:56 AM 39.0 °F 32.8 °F 27.0 °F 62% 30.30 in 10.0 mi NNE 9.2 mph - N/A   Clear
12:56 PM 39.9 °F 35.8 °F 27.0 °F 60% 30.29 in 10.0 mi North 5.8 mph - N/A   Clear
1:56 PM 42.1 °F - 26.1 °F 53% 30.27 in 10.0 mi Calm Calm - N/A   Partly Cloudy
2:56 PM 43.0 °F 39.5 °F 28.0 °F 56% 30.25 in 10.0 mi North 5.8 mph - N/A   Partly Cloudy
3:56 PM 43.0 °F 40.3 °F 27.0 °F 53% 30.23 in 10.0 mi NE 4.6 mph - N/A   Clear
4:56 PM 43.0 °F - 27.0 °F 53% 30.22 in 10.0 mi Calm Calm - N/A   Clear
5:56 PM 43.0 °F - 27.0 °F 53% 30.21 in 10.0 mi Calm Calm - N/A   Clear
6:56 PM 39.0 °F - 26.1 °F 60% 30.21 in 10.0 mi Calm Calm - N/A   Clear
7:56 PM 34.0 °F - 27.0 °F 75% 30.20 in 10.0 mi Calm Calm - N/A   Clear
8:56 PM 32.0 °F - 26.1 °F 79% 30.19 in 10.0 mi Calm Calm - N/A   Clear
9:56 PM 32.0 °F - 27.0 °F 82% 30.19 in 10.0 mi Calm Calm - N/A   Clear
10:56 PM 28.0 °F - 25.0 °F 88% 30.19 in 10.0 mi Calm Calm - N/A   Clear
11:56 PM 28.0 °F - 25.0 °F 88% 30.19 in 4.0 mi Calm Calm - N/A   Clear